CW0062 Weather Reports


Display with metric or nautical units.
time (UTC)temp
F
wind
direction
speed
MPH
gust
MPH
rain 1hr
in
rain 24hr
in
rain mn
in
humidity
%
barometer
mb
20220116184704 47 125 0.0 5.0 0.00 0.00 0.00 46 1019.8
20220116184204 47 313 1.0 6.0 0.00 0.00 0.00 48 1020.1
20220116183204 47 261 3.0 8.0 0.00 0.00 0.00 46 1020.3
20220116180704 45 350 1.0 5.0 0.00 0.00 0.00 53 1021.0
20220116180204 44 321 5.0 8.0 0.00 0.00 0.00 53 1021.3
20220116174203 42 333 2.0 8.0 0.00 0.00 0.00 54 1021.6
20220116173703 43 263 6.0 9.0 0.00 0.00 0.00 54 1021.7
20220116173204 43 264 5.0 9.0 0.00 0.00 0.00 54 1021.8
20220116171704 40 311 1.0 8.0 0.00 0.00 0.00 59 1022.0
20220116170703 41 300 5.0 9.0 0.00 0.00 0.00 57 1022.2
20220116170204 41 246 5.0 10.0 0.00 0.00 0.00 59 1022.2
20220116164704 39 278 6.0 8.0 0.00 0.00 0.00 62 1022.6
20220116164203 38 247 3.0 8.0 0.00 0.00 0.00 64 1022.6
20220116163703 37 262 7.0 10.0 0.00 0.00 0.00 64 1022.7
20220116163204 37 268 6.0 10.0 0.00 0.00 0.00 66 1022.8
20220116161204 35 291 2.0 9.0 0.00 0.00 0.00 69 1022.8
20220116160703 34 280 8.0 10.0 0.00 0.00 0.00 69 1022.8
20220116154705 32 292 3.0 8.0 0.00 0.00 0.00 73 1022.4
20220116154204 32 271 3.0 7.0 0.00 0.00 0.00 73 1022.6
20220116153704 32 312 2.0 8.0 0.00 0.00 0.00 74 1022.6
20220116153204 31 293 4.0 9.0 0.00 0.00 0.00 75 1022.6
20220116151704 30 277 5.0 8.0 0.00 0.00 0.00 78 1022.5
20220116151203 29 290 5.0 8.0 0.00 0.00 0.00 79 1022.6
20220116150204 28 299 4.0 8.0 0.00 0.00 0.00 81 1022.6
20220116144704 26 294 4.0 9.0 0.00 0.00 0.00 83 1022.7
20220116143703 25 293 4.0 6.0 0.00 0.00 0.00 83 1022.6
20220116141704 23 289 2.0 5.0 0.00 0.00 0.00 82 1022.8
20220116141203 23 293 2.0 5.0 0.00 0.00 0.00 81 1022.6
20220116140704 22 329 0.0 2.0 0.00 0.00 0.00 81 1022.5
20220116140204 22 329 1.0 3.0 0.00 0.00 0.00 81 1022.6
20220116134203 23 346 0.0 0.0 0.00 0.00 0.00 80 1022.6
20220116133704 23 346 0.0 0.0 0.00 0.00 0.00 80 1022.4
20220116131704 24 346 0.0 0.0 0.00 0.00 0.00 80 1022.2
20220116131204 24 346 0.0 1.0 0.00 0.00 0.00 80 1022.1
20220116130704 24 346 0.0 2.0 0.00 0.00 0.00 80 1022.2
20220116130203 24 343 0.0 5.0 0.00 0.00 0.00 80 1022.1
20220116124704 24 329 2.0 5.0 0.00 0.00 0.00 79 1022.1
20220116124203 24 320 0.0 3.0 0.00 0.00 0.00 79 1022.1
20220116123704 24 316 1.0 3.0 0.00 0.00 0.00 78 1022.3
20220116123204 24 307 0.0 2.0 0.00 0.00 0.00 78 1022.3
20220116121204 25 306 0.0 2.0 0.00 0.00 0.00 77 1022.3
20220116114703 25 315 0.0 3.0 0.00 0.00 0.00 77 1022.2
20220116114203 25 314 2.0 6.0 0.00 0.00 0.00 77 1022.2
20220116113203 26 316 0.0 3.0 0.00 0.00 0.00 76 1022.2
20220116111703 26 303 2.0 6.0 0.00 0.00 0.00 76 1022.2
20220116111203 26 289 1.0 7.0 0.00 0.00 0.00 75 1022.3
20220116110704 26 291 1.0 5.0 0.00 0.00 0.00 75 1022.2
20220116104703 27 355 1.0 5.0 0.00 0.00 0.00 75 1022.1
20220116104204 27 355 1.0 5.0 0.00 0.00 0.00 75 1022.2
20220116103704 28 0 2.0 5.0 0.00 0.00 0.00 74 1022.1
20220116103203 28 354 2.0 6.0 0.00 0.00 0.00 74 1022.2
20220116101704 28 0 3.0 7.0 0.00 0.00 0.00 74 1022.5
20220116101204 28 338 4.0 12.0 0.00 0.00 0.00 74 1022.8
20220116100703 28 333 4.0 9.0 0.00 0.00 0.00 74 1023.0
20220116094703 29 317 9.0 12.0 0.00 0.00 0.00 74 1023.5
20220116093204 29 318 9.0 16.0 0.00 0.00 0.00 73 1023.6
20220116091704 29 311 8.0 12.0 0.00 0.00 0.00 73 1023.7
20220116091204 29 308 6.0 12.0 0.00 0.00 0.00 73 1023.5
20220116090704 29 301 6.0 10.0 0.00 0.00 0.00 73 1023.6
20220116090204 29 324 7.0 13.0 0.00 0.00 0.00 73 1023.6
20220116084704 30 316 7.0 13.0 0.00 0.00 0.00 73 1023.9
20220116084204 29 325 9.0 14.0 0.00 0.00 0.00 73 1024.0
20220116083704 30 326 10.0 14.0 0.00 0.00 0.00 73 1024.0
20220116083204 30 321 8.0 14.0 0.00 0.00 0.00 73 1023.8
20220116081706 29 305 6.0 12.0 0.00 0.00 0.00 73 1023.6
20220116081203 29 304 5.0 12.0 0.00 0.00 0.00 73 1023.5
20220116080704 29 305 5.0 10.0 0.00 0.00 0.00 73 1023.6
20220116080204 29 282 4.0 12.0 0.00 0.00 0.00 73 1023.6
20220116074704 30 301 3.0 7.0 0.00 0.00 0.00 73 1023.4
20220116074204 30 331 5.0 8.0 0.00 0.00 0.00 73 1023.7
20220116073704 30 314 4.0 7.0 0.00 0.00 0.00 72 1023.3
20220116073204 30 289 3.0 9.0 0.00 0.00 0.00 72 1023.2
20220116070203 30 320 2.0 13.0 0.00 0.00 0.00 71 1024.7
20220116064703 31 324 6.0 12.0 0.00 0.00 0.00 71 1024.3
20220116064203 31 317 5.0 10.0 0.00 0.00 0.00 71 1024.3
20220116061703 31 348 9.0 13.0 0.00 0.00 0.00 70 1024.3
20220116060203 31 294 6.0 10.0 0.00 0.00 0.00 69 1024.8
20220116054204 32 309 7.0 12.0 0.00 0.00 0.00 68 1024.8
20220116053704 32 307 7.0 13.0 0.00 0.00 0.00 68 1024.7
20220116053203 32 321 6.0 14.0 0.00 0.00 0.00 68 1024.8
20220116051203 32 331 5.0 10.0 0.00 0.00 0.00 67 1024.9
20220116050704 32 321 6.0 9.0 0.00 0.00 0.00 67 1024.8
20220116050204 32 318 6.0 12.0 0.00 0.00 0.00 67 1024.9
20220116044703 33 321 6.0 13.0 0.00 0.00 0.00 66 1024.9
20220116040704 32 331 12.0 18.0 0.00 0.00 0.00 66 1025.1
20220116040204 32 304 11.0 22.0 0.00 0.00 0.00 66 1025.1
20220116034704 32 322 13.0 18.0 0.00 0.00 0.00 66 1025.1
20220116034203 32 330 13.0 18.0 0.00 0.00 0.00 66 1025.2
20220116033204 32 328 14.0 20.0 0.00 0.00 0.00 66 1025.1
20220116031704 32 332 15.0 21.0 0.00 0.00 0.00 66 1025.1
20220116031204 32 321 18.0 26.0 0.00 0.00 0.00 66 1025.0
20220116030704 32 333 17.0 24.0 0.00 0.00 0.00 66 1025.0
20220116030203 32 322 18.0 29.0 0.00 0.00 0.00 66 1025.0
20220116024704 32 331 16.0 22.0 0.00 0.00 0.00 65 1024.8
20220116023704 32 323 16.0 28.0 0.00 0.00 0.00 65 1025.0
20220116023204 32 333 14.0 24.0 0.00 0.00 0.00 64 1025.1
20220116021704 32 328 15.0 22.0 0.00 0.00 0.00 64 1025.1
20220116021204 32 340 13.0 25.0 0.00 0.00 0.00 63 1024.9
20220116020704 32 324 15.0 24.0 0.00 0.00 0.00 63 1024.8
20220116014704 32 339 14.0 21.0 0.00 0.00 0.00 61 1024.6
20220116013204 32 316 12.0 23.0 0.00 0.00 0.00 61 1024.5
20220116011703 32 325 15.0 23.0 0.00 0.00 0.00 60 1024.4
20220116011204 32 327 13.0 17.0 0.00 0.00 0.00 60 1024.4
20220116010704 32 327 10.0 16.0 0.00 0.00 0.00 60 1024.4
20220116010204 33 329 15.0 23.0 0.00 0.00 0.00 59 1024.4
20220116004704 33 320 16.0 23.0 0.00 0.00 0.00 59 1024.3
20220116004203 33 337 14.0 18.0 0.00 0.00 0.00 59 1024.2
20220116003703 32 326 14.0 23.0 0.00 0.00 0.00 59 1024.2
20220116001703 32 329 14.0 23.0 0.00 0.00 0.00 59 1024.0
20220116001203 32 323 12.0 23.0 0.00 0.00 0.00 58 1024.0
20220116000704 32 318 13.0 25.0 0.00 0.00 0.00 58 1023.9
20220115234703 33 336 16.0 22.0 0.00 0.00 0.00 57 1023.5
20220115234204 33 329 14.0 25.0 0.00 0.00 0.00 56 1023.5
20220115233703 33 325 16.0 23.0 0.00 0.00 0.00 56 1023.5
20220115233204 33 332 18.0 29.0 0.00 0.00 0.00 55 1023.4
20220115231704 33 332 18.0 30.0 0.00 0.00 0.00 55 1023.5
20220115231203 33 320 21.0 28.0 0.00 0.00 0.00 54 1023.5
20220115230703 33 332 20.0 28.0 0.00 0.00 0.00 54 1023.5
20220115230204 33 327 17.0 25.0 0.00 0.00 0.00 54 1023.5
20220115224704 33 325 17.0 23.0 0.00 0.00 0.00 54 1023.6
20220115223704 33 321 15.0 23.0 0.00 0.00 0.00 54 1023.5
20220115221204 33 322 17.0 29.0 0.00 0.00 0.00 53 1023.2
20220115220203 33 328 20.0 30.0 0.00 0.00 0.00 53 1023.1
20220115214704 33 334 20.0 28.0 0.00 0.00 0.00 54 1023.0
20220115214204 33 325 20.0 28.0 0.00 0.00 0.00 53 1022.9
20220115213703 32 322 21.0 32.0 0.00 0.00 0.00 54 1022.8
20220115213204 32 315 23.0 37.0 0.00 0.00 0.00 54 1022.9
20220115211703 32 337 20.0 30.0 0.00 0.00 0.00 56 1023.1
20220115211203 32 328 15.0 24.0 0.00 0.00 0.00 57 1022.9
20220115210704 32 318 20.0 31.0 0.00 0.00 0.00 56 1022.9
20220115210204 32 318 17.0 28.0 0.00 0.00 0.00 55 1022.9
20220115203704 32 337 16.0 28.0 0.00 0.00 0.00 55 1022.8
20220115203203 32 323 22.0 31.0 0.00 0.00 0.00 56 1022.7
20220115201704 32 307 24.0 29.0 0.00 0.00 0.00 57 1022.6
20220115201204 32 312 20.0 30.0 0.00 0.00 0.00 57 1022.8
20220115200203 32 329 18.0 30.0 0.00 0.00 0.00 56 1022.7
20220115194703 32 325 19.0 33.0 0.00 0.00 0.00 56 1022.9
20220115193704 32 309 22.0 32.0 0.00 0.00 0.00 56 1023.0
20220115193204 32 312 22.0 33.0 0.00 0.00 0.00 56 1023.0
20220115191703 32 317 14.0 26.0 0.00 0.00 0.00 56 1023.2
20220115191204 32 313 23.0 32.0 0.00 0.00 0.00 56 1023.3
20220115190703 32 326 17.0 29.0 0.00 0.00 0.00 60 1023.4